Location: Lake Crest
(37.6062°N, 88.9176°W)
Time: 23:07:44
(UTC+00:00)

CENTAUR R/B - Pass Details

Date: 15 December 2019
Orbit: 773 x 1415 km, 63.4° (Epoch: 18 January)

Event Time Altitude Azimuth Distance (km) Brightness Sun altitude
Rises 10:57:08 0° 177° (S) 3,322 5.5 -24.2°
Reaches altitude 10° 10:59:47 10° 165° (SSE) 2,454 4.9 -23.7°
Maximum altitude 11:04:27 27° 109° (ESE) 1,680 4.5 -22.8°
Drops below altitude 10° 11:09:39 10° 54° (NE) 2,772 5.4 -21.8°
Sets 11:12:50 0° 43° (NE) 3,842 6.0 -21.1°
